This is the latest recevied weather packets stored in our database for station/object W5TUX. If no packets are shown the sender has not sent any weather packets the latest 10 day(s).
| Time | Temp. | Humidity | Pressure | Rain* | Wind** | Luminosity | Snow |
|---|---|---|---|---|---|---|---|
| 1777039752 | 22.78° C | 86% | 1011.3 hPa | 0 mm | - | 39 W/m² | - |
| 1777039452 | 22.78° C | 86% | 1011.2 hPa | 0 mm | - | 89 W/m² | - |
| 1777039148 | 22.78° C | 86% | 1011 hPa | 0 mm | - | 125 W/m² | - |
| 1777038847 | 22.78° C | 86% | 1011.1 hPa | 0 mm | - | 102 W/m² | - |
| 1777038544 | 22.78° C | 86% | 1011.2 hPa | 0 mm | - | 61 W/m² | - |
| 1777038243 | 22.78° C | 86% | 1011 hPa | 0 mm | - | 54 W/m² | - |
| 1777037939 | 22.22° C | 87% | 1010.9 hPa | 0 mm | - | 127 W/m² | - |
| 1777037635 | 22.22° C | 87% | 1010.7 hPa | 0 mm | - | 35 W/m² | - |
| 1777037331 | 22.22° C | 87% | 1010.9 hPa | 0 mm | - | 19 W/m² | - |
| 1777037029 | 22.22° C | 87% | 1011 hPa | 0 mm | - | 22 W/m² | - |
| 1777036726 | 22.22° C | 87% | 1011 hPa | 0 mm | - | 41 W/m² | - |
| 1777036425 | 22.22° C | 87% | 1010.9 hPa | 0 mm | - | 37 W/m² | - |
| 1777036121 | 22.22° C | 87% | 1010.8 hPa | 0 mm | - | 69 W/m² | - |
| 1777035817 | 22.22° C | 87% | 1010.6 hPa | 0 mm | - | 66 W/m² | - |
| 1777035514 | 22.22° C | 87% | 1010.8 hPa | 0 mm | - | 47 W/m² | - |
| 1777035213 | 22.22° C | 87% | 1010.9 hPa | 0 mm | - | 28 W/m² | - |
| 1777034909 | 22.22° C | 87% | 1010.5 hPa | 0 mm | - | 23 W/m² | - |
| 1777034607 | 22.22° C | 87% | 1010.6 hPa | 0 mm | - | 18 W/m² | - |
| 1777034304 | 22.22° C | 87% | 1010.6 hPa | 0 mm | - | 16 W/m² | - |
| 1777034000 | 22.22° C | 86% | 1010.5 hPa | 0 mm | - | 12 W/m² | - |
| 1777033695 | 22.22° C | 86% | 1010.6 hPa | 0 mm | - | 9 W/m² | - |
| 1777033392 | 22.22° C | 86% | 1010.4 hPa | 0 mm | - | 17 W/m² | - |
| 1777033090 | 22.22° C | 86% | 1010.4 hPa | 0 mm | - | 16 W/m² | - |
| 1777032785 | 22.22° C | 86% | 1010.4 hPa | 0 mm | - | 9 W/m² | - |
| 1777032482 | 22.22° C | 86% | 1010.3 hPa | 0 mm | - | 13 W/m² | - |
* Rain latest hour (hover to see other rain measurements)
** Current wind speed in m/s (hover to see current wind gust speed)